Vertical_Velocity
4 1 -1 0 -1 1 -2 -3 1 3 1 1 5 1 2 -2 -1 4 2 6 5 1
-3 -3 -7 -11 -3 -0 3 -4 -1 2 3 -0 3 6 2 -1 -3 -2 1 3 1 2
3 0 2 0 -1 1 5 20 1 -5 0 -2 4 1 1 -1 4 1 -0 -3 2 1
1 -7 -4 -1 -0 2 9 4 8 1 2 3 2 3 -0 -2 2 2 5 -1 0 0
-2 -1 -2 -4 -4 5 -0 0 -3 15 -2 5 3 4 3 2 -1 -0 7 5 0 -2
-2 0 -4 -5 -3 2 6 2 10 16 -3 8 5 4 1 1 2 -1 -0 5 3 4
-0 -3 -5 -3 -5 1 -2 -3 6 0 -5 -1 -0 0 3 -1 -1 1 -1 -2 -0 3
0 2 -1 -4 0 -2 3 4 3 6 10 1 -5 0 -1 -1 -0 -2 -3 -3 -4 -3
-5 -3 -1 -0 4 10 3 -0 1 -8 -2 2 3 4 0 0 -0 1 -1 -2 2 1
-2 -2 1 -3 -1 2 1 0 -1 -0 2 -0 -0 -3 1 5 1 2 2 2 -2 0
1 -2 -3 0 -2 -1 1 -0 2 3 2 1 -1 4 6 6 4 3 -1 -2 0 3
3 0 1 7 4 5 1 3 8 5 5 13 -6 -2 -10 1 -3 -8 -7 6 -4 -3
0 5 5 2 -1 5 -2 16 15 4 5 1 2 16 -7 2 18 12 11 3 -8 0
0 1 1 3 5 3 8 -5 0 5 9 19 2 1 6 5 -2 2 9 4 10 0
Height
2988 2988 2987 2987 2988 2989 2992 2998 3003 3007 3013 3018 3025 3033 3041 3045 3052 3058 3063 3066 3071 3076
2978 2975 2974 2974 2973 2975 2979 2985 2992 2997 3003 3008 3014 3022 3029 3035 3041 3047 3052 3057 3061 3065
2967 2964 2959 2958 2958 2961 2968 2975 2981 2989 2995 3000 3005 3011 3017 3023 3030 3036 3041 3048 3051 3056
2958 2955 2953 2952 2952 2955 2961 2968 2975 2982 2989 2994 2999 3004 3009 3014 3020 3026 3032 3037 3041 3046
2954 2951 2948 2946 2947 2951 2955 2962 2969 2977 2983 2989 2994 2997 3002 3007 3011 3017 3022 3026 3031 3036
2947 2947 2945 2942 2944 2947 2952 2957 2965 2971 2978 2983 2987 2991 2994 2998 3004 3008 3012 3016 3021 3026
2941 2942 2943 2942 2943 2947 2952 2957 2964 2970 2974 2978 2982 2985 2989 2993 2997 3001 3005 3009 3012 3018
2935 2938 2941 2943 2944 2948 2952 2957 2962 2966 2969 2973 2976 2979 2983 2988 2990 2994 2999 3003 3006 3011
2932 2935 2939 2943 2946 2948 2951 2953 2957 2960 2963 2967 2970 2974 2977 2981 2983 2988 2991 2994 2998 3000
2932 2935 2939 2941 2943 2945 2948 2951 2953 2955 2957 2959 2962 2965 2969 2973 2976 2980 2983 2986 2990 2992
2940 2939 2941 2941 2943 2945 2946 2948 2948 2950 2952 2954 2955 2958 2962 2966 2970 2972 2975 2977 2981 2983
2948 2945 2943 2943 2944 2943 2943 2942 2941 2942 2943 2946 2946 2948 2951 2956 2961 2964 2968 2969 2974 2977
2958 2953 2951 2948 2947 2944 2944 2942 2941 2939 2937 2939 2941 2942 2944 2949 2950 2956 2962 2963 2967 2969
2963 2960 2958 2955 2953 2951 2949 2946 2947 2946 2946 2944 2945 2946 2949 2951 2955 2957 2959 2963 2964 2968